Location: Unspecified
(0.0000°N, 0.0000°E)
Time: 16:37:42
(UTC+02:00)

Centaur D-1AR AC-41 - Visible Passes

Search period start: 22 June 2018 00:00
Search period end: 02 July 2018 00:00
Orbit: 633 x 36207 km, 21.6° (Epoch: 21 June)

Date Brightness Start Highest point End Pass type
(mag) Time Alt. Az. Time Alt. Az. Time Alt. Az.
23 Jun 7.2 05:38:43 39° WSW 09:03:44 66° SSW 15:37:19 10° NE visible
24 Jun 7.7 03:14:37 57° SSE 03:14:37 57° SSE 13:04:07 10° ENE visible
25 Jun 8.5 00:50:32 16° ESE 00:50:32 16° ESE 10:21:26 10° E visible
25 Jun 4.9 21:50:12 10° NNW 21:52:48 17° NNE 21:53:08 17° NE visible
27 Jun 6.6 06:50:20 18° WSW 08:59:07 56° SW 16:50:19 10° NE visible
28 Jun 7.7 04:26:15 57° SSW 04:39:04 60° S 14:19:09 10° ENE visible
29 Jun 8.2 02:02:10 38° SE 02:02:10 38° SE 11:43:20 10° ENE visible
29 Jun 5.4 23:02:16 10° NW 23:03:22 20° NW 23:03:22 20° NW visible
30 Jun 11.2 04:25:10 10° ESE 07:28:55 26° E 08:48:49 10° E visible
